Weather History for Cook, MN

Change the Weather History Date:

Thursday, December 27, 2012

  Actual Average Record
Temperature  
Mean Temperature 4 °F -  
Max Temperature 19 °F 15 °F 37 °F (2003)
Min Temperature -11 °F 0 °F -22 °F (2000)
Degree Days  
Heating Degree Days 61    
Moisture  
Dew Point 0 °F    
Average Humidity 85    
Maximum Humidity 100    
Minimum Humidity 73    
Precipitation  
Precipitation 0.00 in - - ()
Sea Level Pressure  
Sea Level Pressure 30.20 in    
Wind  
Wind Speed 0 mph (North)    
Max Wind Speed 0 mph    
Max Gust Speed -    
Visibility 10 miles    
Events Snow    
Averages and records for this station are not official NWS values.
T = Trace of Precipitation, MM = Missing Value Source: NWS Daily Summary

Daily Weather History Graph

Daily Weather History Graph

Search for Another Location

Airport:

Trip Planner

Search our weather history database for the weather conditions in past years. The results will help you decide how hot, cold, wet, or windy it might be!

Date:

Astronomy

Dec. 27, 2012 Rise Set
Actual Time 7:59 AM CST 4:24 PM CST
Civil Twilight 7:23 AM CST 5:01 PM CST
Nautical Twilight 6:43 AM CST 5:40 PM CST
Astronomical Twilight 6:06 AM CST 6:18 PM CST
Moon 4:11 PM CST (12/27) 7:08 AM CST (12/27)
Length of Visible Light 9h 37m
Length of Day
8h 25m
Full, 100% of the Moon is Illuminated
Dec 27
Full
Dec 28
Full
Jan 4
Last Quarter
Jan 11
New
Jan 18
First Quarter

Hourly Weather History & Observations

Time (CST) Temp. Dew Point Humidity Pressure Visibility Wind Dir Wind Speed Gust Speed Precip Events Conditions
12:17 AM -5.8 °F -9.4 °F 84% 30.24 in 10.0 mi Calm Calm - N/A   Overcast
12:36 AM -5.8 °F -9.4 °F 84% 30.24 in 10.0 mi Calm Calm - N/A   Overcast
12:57 AM -5.8 °F -9.4 °F 84% 30.23 in 10.0 mi Calm Calm - N/A   Overcast
1:17 AM -5.8 °F -7.6 °F 92% 30.23 in 10.0 mi Calm Calm - N/A   Overcast
1:36 AM -5.8 °F -9.4 °F 84% 30.23 in 10.0 mi Calm Calm - N/A   Mostly Cloudy
1:57 AM -5.8 °F -9.4 °F 84% 30.24 in 10.0 mi Calm Calm - N/A   Mostly Cloudy
2:17 AM -7.6 °F -9.4 °F 92% 30.24 in 10.0 mi Calm Calm - N/A   Scattered Clouds
2:36 AM -7.6 °F -11.2 °F 84% 30.25 in 10.0 mi Calm Calm - N/A   Clear
2:57 AM -7.6 °F -11.2 °F 84% 30.24 in 10.0 mi Calm Calm - N/A   Clear
3:16 AM -7.6 °F -11.2 °F 84% 30.24 in 10.0 mi Calm Calm - N/A   Clear
3:57 AM -9.4 °F -13.0 °F 84% 30.24 in 10.0 mi Calm Calm - N/A   Clear
4:16 AM -9.4 °F -14.8 °F 77% 30.24 in 10.0 mi Calm Calm - N/A   Clear
4:36 AM -9.4 °F -14.8 °F 77% 30.24 in 10.0 mi Calm Calm - N/A   Clear
4:57 AM -11.2 °F -14.8 °F 84% 30.24 in 10.0 mi Calm Calm - N/A   Clear
5:16 AM -11.2 °F -14.8 °F 84% 30.23 in 10.0 mi Calm Calm - N/A   Clear
5:36 AM -11.2 °F -14.8 °F 84% 30.24 in 10.0 mi Calm Calm - N/A   Clear
5:57 AM -11.2 °F -14.8 °F 84% 30.23 in 10.0 mi Calm Calm - N/A   Clear
6:16 AM -11.2 °F -16.6 °F 77% 30.23 in 10.0 mi Calm Calm - N/A   Clear
6:36 AM -11.2 °F -16.6 °F 77% 30.22 in 10.0 mi Calm Calm - N/A   Clear
6:57 AM -11.2 °F -16.6 °F 77% 30.23 in 10.0 mi Calm Calm - N/A   Clear
7:16 AM -11.2 °F -16.6 °F 77% 30.22 in 10.0 mi Calm Calm - N/A   Clear
7:36 AM -11.2 °F -16.6 °F 77% 30.23 in 10.0 mi Calm Calm - N/A   Clear
7:57 AM -11.2 °F -16.6 °F 77% 30.23 in 10.0 mi Calm Calm - N/A   Clear
8:16 AM -11.2 °F -16.6 °F 77% 30.23 in 10.0 mi Calm Calm - N/A   Scattered Clouds
8:36 AM -11.2 °F -14.8 °F 84% 30.24 in 10.0 mi Calm Calm - N/A   Overcast
8:57 AM -9.4 °F -13.0 °F 84% 30.24 in 10.0 mi Calm Calm - N/A   Overcast
9:16 AM -7.6 °F -11.2 °F 84% 30.24 in 10.0 mi Calm Calm - N/A   Overcast
9:37 AM -4.0 °F -7.6 °F 85% 30.24 in 10.0 mi Calm Calm - N/A   Overcast
9:56 AM -0.4 °F -4.0 °F 85% 30.24 in 10.0 mi Calm Calm - N/A   Overcast
10:16 AM 1.4 °F -2.2 °F 85% 30.24 in 10.0 mi Calm Calm - N/A   Overcast
10:37 AM 3.2 °F -0.4 °F 85% 30.23 in 10.0 mi Calm Calm - N/A   Scattered Clouds
10:56 AM 3.2 °F 1.4 °F 92% 30.22 in 10.0 mi Calm Calm - N/A   Clear
11:17 AM 5.0 °F 1.4 °F 85% 30.22 in 10.0 mi Calm Calm - N/A   Clear
11:36 AM 6.8 °F 3.2 °F 85% 30.21 in 10.0 mi Calm Calm - N/A   Clear
11:57 AM 8.6 °F 5.0 °F 85% 30.21 in 10.0 mi Calm Calm - N/A   Scattered Clouds
12:16 PM 10.4 °F 5.0 °F 79% 30.20 in 10.0 mi Calm Calm - N/A   Overcast
12:37 PM 12.2 °F 6.8 °F 79% 30.19 in 10.0 mi Calm Calm - N/A   Overcast
12:57 PM 12.2 °F 8.6 °F 85% 30.18 in 10.0 mi Calm Calm - N/A   Overcast
1:16 PM 15.8 °F 8.6 °F 73% 30.18 in 10.0 mi Calm Calm - N/A   Mostly Cloudy
1:37 PM 17.6 °F 10.4 °F 73% 30.17 in 10.0 mi Calm Calm - N/A   Overcast
1:57 PM 19.4 °F 12.2 °F 74% 30.17 in 10.0 mi Calm Calm - N/A   Overcast
2:16 PM 19.4 °F 12.2 °F 74% 30.17 in 10.0 mi Calm Calm - N/A   Overcast
2:37 PM 19.4 °F 12.2 °F 74% 30.18 in 10.0 mi Calm Calm - N/A   Overcast
2:57 PM 19.4 °F 12.2 °F 74% 30.18 in 10.0 mi Calm Calm - N/A   Overcast
3:16 PM 19.4 °F 12.2 °F 74% 30.18 in 10.0 mi Calm Calm - N/A   Overcast
3:37 PM 19.4 °F 14.0 °F 80% 30.17 in 10.0 mi Calm Calm - N/A   Overcast
3:57 PM 19.4 °F 14.0 °F 80% 30.17 in 10.0 mi Calm Calm - N/A   Overcast
4:16 PM 19.4 °F 14.0 °F 80% 30.18 in 10.0 mi Calm Calm - N/A   Overcast
4:37 PM 17.6 °F 14.0 °F 86% 30.18 in 10.0 mi Calm Calm - N/A   Overcast
4:57 PM 17.6 °F 14.0 °F 86% 30.18 in 10.0 mi Calm Calm - N/A   Overcast
5:17 PM 15.8 °F 14.0 °F 93% 30.18 in 10.0 mi Calm Calm - N/A   Overcast
5:37 PM 15.8 °F 14.0 °F 93% 30.17 in 10.0 mi Calm Calm - N/A Snow Light Snow
5:56 PM 15.8 °F 12.2 °F 86% 30.17 in 10.0 mi Calm Calm - N/A Snow Light Snow
6:37 PM 14.0 °F 12.2 °F 93% 30.17 in 10.0 mi Calm Calm - N/A   Overcast
6:56 PM 12.2 °F 10.4 °F 92% 30.17 in 10.0 mi Calm Calm - N/A Snow Light Snow
7:17 PM 12.2 °F 10.4 °F 92% 30.17 in 10.0 mi Calm Calm - N/A   Overcast
7:37 PM 12.2 °F 10.4 °F 92% 30.17 in 10.0 mi Calm Calm - N/A   Overcast
7:56 PM 10.4 °F 10.4 °F 100% 30.16 in 7.0 mi Calm Calm - N/A Snow Light Snow
8:17 PM 10.4 °F 8.6 °F 92% 30.16 in 10.0 mi Calm Calm - N/A   Overcast
8:36 PM 10.4 °F 8.6 °F 92% 30.15 in 7.0 mi Calm Calm - N/A Snow Light Snow
8:56 PM 10.4 °F 8.6 °F 92% 30.15 in 5.0 mi Calm Calm - N/A Snow Light Snow
9:17 PM 10.4 °F 8.6 °F 92% 30.15 in 7.0 mi Calm Calm - N/A Snow Light Snow
9:36 PM 10.4 °F 8.6 °F 92% 30.15 in 7.0 mi Calm Calm - N/A Snow Light Snow
9:56 PM 10.4 °F 8.6 °F 92% 30.14 in 10.0 mi Calm Calm - N/A Snow Light Snow
10:17 PM 8.6 °F 6.8 °F 92% 30.14 in 10.0 mi Calm Calm - N/A Snow Light Snow
10:36 PM 8.6 °F 6.8 °F 92% 30.15 in 10.0 mi Calm Calm - N/A Snow Light Snow
10:56 PM 8.6 °F 6.8 °F 92% 30.14 in 4.0 mi Calm Calm - N/A Snow Light Snow
11:36 PM 8.6 °F 6.8 °F 92% 30.13 in 3.0 mi Calm Calm - N/A Snow Light Snow
11:57 PM 8.6 °F 6.8 °F 92% 30.13 in 3.0 mi Calm Calm - N/A Snow Light Snow